Weather History for Valdez Airport, AK

Change the Weather History Date:

Thursday, January 3, 2013

  Actual Average Record
Temperature  
Mean Temperature 31 °F -  
Max Temperature 32 °F 26 °F 44 °F (2001)
Min Temperature 30 °F 17 °F -1 °F (1969)
Degree Days  
Heating Degree Days 34    
Moisture  
Dew Point 30 °F    
Average Humidity 94    
Maximum Humidity 100    
Minimum Humidity 86    
Precipitation  
Precipitation 0.03 in - - ()
Sea Level Pressure  
Sea Level Pressure 29.74 in    
Wind  
Wind Speed 0 mph (North)    
Max Wind Speed 0 mph    
Max Gust Speed -    
Visibility 4 miles    
Events      
Averages and records for this station are not official NWS values.
T = Trace of Precipitation, MM = Missing Value Source: NWS Daily Summary

Daily Weather History Graph

Daily Weather History Graph

Search for Another Location

Airport:

Trip Planner

Search our weather history database for the weather conditions in past years. The results will help you decide how hot, cold, wet, or windy it might be!

Date:

Astronomy

Jan. 03, 2013 Rise Set
Actual Time 9:56 AM AKST 3:43 PM AKST
Civil Twilight 8:56 AM AKST 4:43 PM AKST
Nautical Twilight 7:58 AM AKST 5:41 PM AKST
Astronomical Twilight 7:04 AM AKST 6:34 PM AKST
Moon No Moon Rise 11:11 AM AKST (1/3)
Length of Visible Light 7h 46m
Length of Day
5h 46m
Waning Gibbous, 64% of the Moon is Illuminated
Jan 3
Waning Gibbous
Jan 4
Last Quarter
Jan 11
New
Jan 18
First Quarter
Jan 26
Full

Hourly Weather History & Observations

Time (AKST) Temp. Dew Point Humidity Pressure Visibility Wind Dir Wind Speed Gust Speed Precip Events Conditions
12:16 AM 32.0 °F 32.0 °F 100% 29.77 in 1.8 mi Calm Calm - N/A   Overcast
12:36 AM 32.0 °F 30.2 °F 93% 29.78 in 2.5 mi Calm Calm - N/A   Overcast
12:56 AM 32.0 °F 30.2 °F 93% 29.78 in 2.0 mi Calm Calm - N/A   Overcast
1:16 AM 32.0 °F 30.2 °F 93% 29.78 in 4.0 mi Calm Calm - N/A   Overcast
1:36 AM 32.0 °F 32.0 °F 100% 29.78 in 3.0 mi Calm Calm - N/A   Overcast
1:56 AM 32.0 °F 32.0 °F 100% 29.77 in 3.0 mi Calm Calm - 0.01 in   Overcast
2:16 AM 30.2 °F 28.4 °F 93% 29.77 in 4.0 mi Calm Calm - N/A   Overcast
2:36 AM 32.0 °F 30.2 °F 93% 29.77 in 4.0 mi Calm Calm - N/A   Overcast
2:56 AM 32.0 °F 30.2 °F 93% 29.78 in 4.0 mi Calm Calm - N/A   Overcast
3:16 AM 32.0 °F 30.2 °F 93% 29.77 in 2.0 mi Calm Calm - N/A   Overcast
3:36 AM 32.0 °F 30.2 °F 93% 29.78 in 2.0 mi Calm Calm - N/A   Overcast
3:56 AM 32.0 °F 30.2 °F 93% 29.77 in 2.0 mi Calm Calm - N/A   Overcast
4:16 AM 30.2 °F 28.4 °F 93% 29.77 in 1.2 mi Calm Calm - N/A   Overcast
4:36 AM 32.0 °F 30.2 °F 93% 29.77 in 0.5 mi Calm Calm - N/A   Overcast
4:56 AM 32.0 °F 30.2 °F 93% 29.77 in 1.0 mi Calm Calm - N/A   Overcast
5:16 AM 32.0 °F 30.2 °F 93% 29.77 in 0.8 mi Calm Calm - N/A   Overcast
5:36 AM 32.0 °F 30.2 °F 93% 29.77 in 1.5 mi Calm Calm - N/A   Overcast
5:56 AM 32.0 °F 30.2 °F 93% 29.76 in 0.8 mi Calm Calm - N/A   Overcast
6:16 AM 32.0 °F 32.0 °F 100% 29.76 in 2.0 mi Calm Calm - N/A   Overcast
6:36 AM 32.0 °F 28.4 °F 87% 29.76 in 2.0 mi Calm Calm - N/A   Overcast
6:56 AM 32.0 °F 28.4 °F 87% 29.76 in 3.0 mi Calm Calm - N/A   Overcast
7:16 AM 32.0 °F 30.2 °F 93% 29.76 in 3.0 mi Calm Calm - N/A   Overcast
7:36 AM 32.0 °F 30.2 °F 93% 29.76 in 3.0 mi Calm Calm - N/A   Overcast
7:56 AM 32.0 °F 30.2 °F 93% 29.76 in 2.5 mi Calm Calm - 0.01 in   Overcast
8:36 AM 32.0 °F 30.2 °F 93% 29.76 in 4.0 mi Calm Calm - N/A   Overcast
8:56 AM 32.0 °F 30.2 °F 93% 29.76 in 3.0 mi Calm Calm - N/A   Overcast
9:16 AM 32.0 °F 32.0 °F 100% 29.76 in 3.0 mi Calm Calm - N/A   Overcast
9:36 AM 32.0 °F 30.2 °F 93% 29.76 in 3.0 mi Calm Calm - N/A   Overcast
9:56 AM 32.0 °F 30.2 °F 93% 29.77 in 3.0 mi Calm Calm - N/A   Overcast
10:16 AM 32.0 °F 30.2 °F 93% 29.77 in 3.0 mi Calm Calm - N/A   Overcast
10:36 AM 32.0 °F 30.2 °F 93% 29.77 in 3.0 mi Calm Calm - 0.01 in   Overcast
10:56 AM 32.0 °F 30.2 °F 93% 29.77 in 5.0 mi Calm Calm - 0.01 in   Overcast
11:16 AM 32.0 °F 28.4 °F 87% 29.77 in 5.0 mi Calm Calm - N/A   Overcast
11:36 AM 32.0 °F 30.2 °F 93% 29.76 in 5.0 mi Calm Calm - N/A   Overcast
11:56 AM 32.0 °F 30.2 °F 93% 29.76 in 2.0 mi Calm Calm - N/A   Overcast
12:16 PM 32.0 °F 30.2 °F 93% 29.76 in 2.0 mi Calm Calm - N/A   Overcast
12:36 PM 32.0 °F 28.4 °F 87% 29.76 in 1.5 mi Calm Calm - N/A   Overcast
12:56 PM 32.0 °F 28.4 °F 87% 29.75 in 1.5 mi Calm Calm - N/A   Overcast
1:36 PM 32.0 °F 28.4 °F 87% 29.75 in 0.2 mi Calm Calm - N/A   Overcast
1:56 PM 32.0 °F 30.2 °F 93% 29.74 in 2.0 mi Calm Calm - N/A   Overcast
2:16 PM 32.0 °F 30.2 °F 93% 29.73 in 2.0 mi Calm Calm - N/A   Overcast
2:36 PM 32.0 °F 32.0 °F 100% 29.73 in 7.0 mi Calm Calm - N/A   Overcast
2:56 PM 32.0 °F 30.2 °F 93% 29.72 in 10.0 mi Calm Calm - N/A   Overcast
3:16 PM 32.0 °F 30.2 °F 93% 29.72 in 10.0 mi Calm Calm - N/A   Overcast
3:36 PM 30.2 °F 28.4 °F 93% 29.71 in 10.0 mi Calm Calm - N/A   Overcast
3:56 PM 32.0 °F 30.2 °F 93% 29.71 in 10.0 mi Calm Calm - N/A   Overcast
4:16 PM 32.0 °F 28.4 °F 87% 29.71 in 0.5 mi Calm Calm - N/A   Unknown
4:36 PM 30.2 °F 28.4 °F 93% 29.71 in 0.5 mi Calm Calm - N/A   Unknown
4:56 PM 30.2 °F 28.4 °F 93% 29.71 in 0.2 mi Calm Calm - N/A   Overcast
5:16 PM 30.2 °F 30.2 °F 100% 29.71 in 0.2 mi Calm Calm - N/A   Overcast
5:36 PM 30.2 °F 28.4 °F 93% 29.71 in 0.2 mi Calm Calm - N/A   Overcast
5:56 PM 30.2 °F 30.2 °F 100% 29.70 in 1.0 mi Calm Calm - N/A   Overcast
6:16 PM 30.2 °F 30.2 °F 100% 29.70 in 1.0 mi Calm Calm - N/A   Overcast
6:36 PM 30.2 °F 30.2 °F 100% 29.70 in 1.0 mi Calm Calm - N/A   Overcast
6:56 PM 30.2 °F 28.4 °F 93% 29.70 in 0.2 mi Calm Calm - N/A   Overcast
7:16 PM 30.2 °F 28.4 °F 93% 29.70 in 0.2 mi Calm Calm - N/A   Overcast
7:36 PM 30.2 °F 28.4 °F 93% 29.70 in 0.2 mi Calm Calm - N/A   Overcast
7:56 PM 30.2 °F 30.2 °F 100% 29.70 in 0.5 mi Calm Calm - N/A   Overcast
8:16 PM 30.2 °F 30.2 °F 100% 29.69 in 0.5 mi Calm Calm - N/A   Overcast
8:36 PM 30.2 °F 28.4 °F 93% 29.69 in 0.5 mi Calm Calm - N/A   Overcast
8:56 PM 30.2 °F 28.4 °F 93% 29.69 in 7.0 mi Calm Calm - N/A   Overcast
9:16 PM 30.2 °F 28.4 °F 93% 29.69 in 7.0 mi Calm Calm - N/A   Overcast
9:36 PM 30.2 °F 30.2 °F 100% 29.69 in 7.0 mi Calm Calm - N/A   Overcast
9:47 PM 30.2 °F 30.2 °F 100% 29.69 in 7.0 mi Calm Calm - N/A   Overcast
9:56 PM 30.2 °F 26.6 °F 86% 29.69 in 7.0 mi Calm Calm - N/A   Overcast
10:16 PM 30.2 °F 28.4 °F 93% 29.70 in 7.0 mi Calm Calm - N/A   Overcast
10:36 PM 30.2 °F 28.4 °F 93% 29.69 in 10.0 mi Calm Calm - N/A   Overcast
10:56 PM 30.2 °F 28.4 °F 93% 29.70 in 10.0 mi Calm Calm - N/A   Overcast
11:16 PM 30.2 °F 28.4 °F 93% 29.70 in 10.0 mi Calm Calm - N/A   Overcast
11:36 PM 30.2 °F 26.6 °F 86% 29.70 in 10.0 mi Calm Calm - N/A   Overcast
11:56 PM 30.2 °F 28.4 °F 93% 29.71 in 10.0 mi Calm Calm - N/A   Overcast